Wind_Speed
30 30 29 28 28 28 27 26 25 24 24 23 23 22 21 21 20 19 19 18 19 18 18 17 17 17 18 18 18 17 18 18 18 18 18 19 19 20 20 21 21 21 21
32 31 30 30 29 29 29 28 27 26 26 25 24 24 23 23 22 21 21 20 20 20 19 19 18 18 19 19 19 19 18 19 19 19 20 21 21 21 21 22 22 22 22
33 32 31 31 31 30 30 29 29 28 27 26 25 25 24 24 23 23 22 22 21 21 21 21 21 20 20 20 20 20 20 20 21 22 22 22 22 22 22 23 23 24 24
34 34 33 32 32 31 31 30 30 29 28 28 26 26 25 25 25 24 23 23 23 22 22 22 22 22 21 21 21 21 22 22 23 23 23 23 23 23 24 24 25 25 25
36 35 35 34 33 32 31 31 31 30 30 29 28 27 27 26 26 26 25 25 24 24 24 23 23 22 22 23 23 23 23 23 24 24 24 25 25 25 25 25 25 26 26
38 38 37 36 35 34 33 32 32 32 32 31 30 29 28 28 27 27 27 26 26 26 25 24 24 23 23 24 24 24 24 25 25 25 25 25 26 26 26 26 26 26 26
40 39 38 38 36 35 35 34 33 32 32 32 31 30 29 29 28 28 27 27 27 26 26 26 25 25 24 24 25 25 25 25 26 26 26 27 27 27 27 27 27 27 27
41 40 40 39 38 37 35 35 35 35 34 33 32 31 30 29 29 29 28 28 28 27 27 27 26 26 26 26 26 26 27 27 27 27 27 28 28 28 28 28 28 28 28
43 42 40 39 39 39 37 36 36 36 35 35 34 33 32 31 30 29 29 29 28 28 28 28 28 28 28 28 28 28 28 28 28 28 28 28 29 29 29 29 29 29 29
43 42 41 40 40 40 39 38 37 37 36 36 35 34 34 33 32 30 29 29 29 29 29 29 29 29 29 29 29 29 29 29 29 30 29 29 30 30 30 30 30 30 31
44 43 42 42 40 40 39 38 38 37 37 37 36 35 34 34 33 32 32 31 31 31 30 30 30 30 30 30 30 30 30 30 30 31 31 31 31 31 31 31 32 32 32
46 45 44 43 43 41 40 39 38 38 38 37 37 36 35 35 34 34 33 33 32 32 31 31 31 31 31 31 31 32 32 32 31 32 32 31 31 31 32 33 33 33 34
47 46 46 45 44 43 42 41 40 39 39 39 38 37 36 35 35 35 35 34 34 33 33 33 33 32 33 33 33 33 33 33 32 32 32 33 33 33 33 34 35 35 36
48 48 47 47 46 46 45 44 42 41 40 40 39 39 38 37 36 36 36 36 36 35 35 35 35 34 34 34 34 34 34 34 34 34 34 34 35 35 35 36 36 37 38
50 49 48 47 47 46 46 46 45 43 42 42 41 41 40 39 39 38 37 37 37 37 36 36 36 36 35 35 35 35 35 35 35 36 36 36 36 36 37 37 38 38 39
53 51 49 48 48 48 47 47 47 45 44 43 43 42 41 41 41 40 40 39 39 38 38 37 37 37 37 37 37 37 36 36 36 37 37 38 38 38 38 39 39 40 40
54 53 52 50 49 48 48 48 47 47 45 45 44 43 43 42 42 41 41 40 39 39 38 38 38 38 38 38 38 38 38 38 38 38 38 39 39 40 41 41 41 42 42
55 54 53 52 51 50 49 49 48 47 47 47 46 45 45 44 44 43 42 41 40 39 39 38 39 39 39 40 40 40 39 39 39 40 40 40 40 41 42 42 43 43 44
56 56 55 54 52 51 51 50 49 49 48 48 47 47 47 46 46 44 43 43 42 42 41 41 41 41 41 41 41 41 41 41 41 41 41 41 42 42 43 43 44 45 46
58 56 56 56 55 53 52 51 50 49 49 49 48 48 47 47 47 46 46 45 44 43 43 43 43 43 43 43 44 44 43 43 43 43 43 43 44 44 44 45 45 46 47
59 58 58 58 58 57 56 54 53 52 51 51 50 50 49 49 49 48 48 47 46 45 45 45 45 44 44 44 45 45 45 45 45 45 45 45 46 46 46 46 47 48 48
60 59 59 59 58 57 57 55 54 53 53 52 52 52 52 51 50 50 49 48 47 47 46 46 46 45 45 45 45 45 45 45 45 46 46 46 47 48 48 48 49 49 49
59 59 59 58 58 57 57 56 55 54 53 53 53 52 52 52 51 51 50 49 49 48 48 47 47 46 46 47 47 46 46 46 46 47 47 48 48 48 49 49 50 50 50
58 58 58 58 58 58 57 57 56 56 55 54 53 52 52 51 51 51 51 50 49 49 49 48 48 48 48 48 48 47 47 48 48 48 49 49 50 50 50 50 50 50 51
58 56 56 57 57 57 57 57 57 57 56 55 54 53 52 51 51 52 52 51 50 50 51 51 50 49 49 49 49 49 49 49 49 49 50 50 51 52 51 51 52 52 52
58 56 57 56 57 57 58 59 58 58 57 56 55 54 53 52 52 52 52 52 52 52 52 52 52 51 51 51 50 50 50 50 50 50 51 51 52 52 52 52 53 53 53
Wind_Direction
239 239 239 240 240 240 240 241 243 244 245 246 247 248 248 249 251 254 256 259 261 263 265 265 268 268 270 272 274 278 281 284 287 290 292 294 295 297 298 298 298 297 297
240 239 238 239 240 240 241 242 243 244 245 246 247 248 249 249 251 253 256 259 261 261 263 264 267 269 269 271 273 277 280 283 286 289 291 293 294 296 297 298 299 297 296
240 239 238 239 239 240 242 242 243 243 244 246 247 248 249 250 251 253 256 259 261 262 264 266 266 268 268 269 272 276 279 282 285 287 289 291 293 295 296 297 297 297 296
240 239 239 239 239 239 241 242 243 243 244 245 246 248 249 250 251 253 255 258 260 262 264 267 267 268 268 270 272 275 278 281 283 285 287 289 291 293 295 296 297 297 296
238 239 239 240 239 239 240 241 243 244 245 246 246 247 248 250 251 253 255 257 259 261 264 265 267 268 269 270 273 276 278 280 282 284 286 288 290 291 293 295 296 296 296
237 238 238 239 240 240 240 240 242 245 246 246 247 247 248 249 251 253 255 256 258 261 263 264 266 268 270 271 273 276 278 280 282 283 285 287 289 290 291 292 294 294 295
237 238 239 239 240 241 241 242 242 244 246 246 247 247 248 249 250 252 254 255 257 260 261 264 265 267 269 271 274 276 278 280 282 283 284 286 288 290 291 291 292 293 294
237 238 239 240 240 241 242 243 243 244 245 246 247 247 248 250 250 251 253 255 257 259 262 263 265 267 269 272 275 276 278 280 282 283 284 286 287 289 290 291 291 293 293
238 238 239 240 241 242 243 243 243 244 244 245 246 247 248 249 251 252 254 256 258 260 262 264 266 268 270 272 275 278 279 280 281 283 284 285 286 288 289 291 292 291 292
236 237 238 239 241 242 243 243 243 243 244 245 246 247 248 249 250 251 253 255 257 259 261 263 266 268 270 272 275 278 279 279 280 282 283 285 285 286 288 289 290 291 291
237 236 238 239 240 242 243 242 244 245 244 244 246 247 248 249 251 251 253 255 257 259 261 262 265 267 269 272 274 277 278 279 280 281 283 284 285 285 286 287 288 289 290
236 237 238 239 239 240 241 242 243 244 243 243 245 247 248 249 251 252 253 255 257 258 260 263 265 267 270 272 274 276 277 279 280 281 282 283 284 284 286 285 285 287 288
236 237 238 239 240 241 241 242 243 244 243 243 245 246 248 249 251 252 252 254 256 258 261 263 266 268 270 271 273 275 277 278 279 281 282 283 283 284 284 284 285 286 288
236 237 238 239 240 241 241 242 242 243 243 244 245 246 247 249 250 252 253 254 255 258 260 263 265 267 269 271 273 274 276 277 278 280 281 283 284 284 284 284 285 286 287
237 237 238 239 239 240 240 241 242 243 244 245 246 247 248 249 250 252 254 255 256 258 260 262 264 266 268 271 272 273 276 277 278 280 281 282 284 284 284 285 285 285 286
237 237 238 239 239 240 240 241 243 244 244 245 246 247 248 250 250 252 255 256 257 258 260 262 264 265 268 271 272 274 275 277 278 280 281 282 283 284 285 285 285 286 287
238 239 239 239 239 239 240 241 243 243 243 245 246 247 248 249 251 253 255 255 257 259 260 262 264 265 268 270 272 272 274 275 277 279 280 281 283 283 284 285 285 286 287
237 238 239 240 239 240 241 242 243 243 244 245 246 248 249 250 252 253 254 255 257 259 260 262 264 266 268 270 271 271 272 274 277 278 280 281 282 283 284 285 285 286 288
237 238 239 240 241 241 241 243 244 244 245 246 247 248 250 250 252 253 255 256 258 259 261 263 264 266 268 269 270 271 272 274 276 278 279 280 282 283 283 284 285 286 287
237 238 239 240 241 242 242 243 243 244 245 246 247 248 249 250 251 253 255 257 258 259 261 263 265 266 267 269 271 271 272 274 276 277 279 280 281 283 283 284 285 286 287
238 239 239 240 241 242 243 243 243 244 246 246 247 248 249 250 251 253 255 256 257 259 262 264 266 267 268 269 271 271 272 274 275 277 278 280 281 283 283 284 285 286 288
238 239 239 240 240 242 243 244 245 245 246 247 248 249 250 250 251 253 255 256 257 259 261 263 265 266 267 268 270 272 273 273 274 276 277 279 281 282 283 284 285 286 287
237 238 239 240 240 241 242 243 244 245 246 247 248 249 250 251 252 254 255 256 258 259 261 263 265 266 267 268 270 271 272 272 273 275 276 278 280 281 283 284 285 286 287
236 238 240 241 241 241 242 243 244 246 246 247 248 249 249 250 252 254 255 257 259 260 262 264 265 266 267 268 269 271 272 273 274 275 276 278 279 281 282 283 284 285 287
237 238 240 241 242 242 242 243 244 245 246 247 248 249 250 250 251 253 255 256 258 260 261 263 264 265 266 267 268 270 272 273 274 275 276 278 279 280 281 283 284 285 286
238 238 239 241 242 242 242 243 244 245 246 247 247 248 249 250 251 253 255 256 258 259 261 262 264 265 266 267 268 270 271 273 274 275 277 278 279 280 281 283 284 285 286
Height
5826 5828 5830 5832 5834 5836 5838 5840 5842 5844 5845 5847 5848 5849 5850 5851 5852 5853 5853 5854 5854 5854 5855 5855 5855 5855 5855 5855 5855 5854 5854 5853 5852 5852 5851 5850 5849 5847 5846 5845 5843 5841 5840
5819 5822 5824 5826 5829 5831 5833 5835 5837 5839 5840 5842 5843 5844 5846 5847 5848 5849 5849 5850 5850 5850 5851 5851 5851 5851 5851 5851 5851 5850 5850 5849 5849 5848 5847 5846 5845 5843 5842 5841 5839 5837 5836
5813 5815 5818 5820 5823 5825 5827 5829 5831 5833 5835 5837 5838 5839 5841 5842 5843 5844 5845 5845 5846 5846 5846 5847 5847 5847 5847 5846 5846 5846 5846 5845 5844 5844 5843 5842 5840 5839 5838 5836 5834 5833 5831
5806 5808 5811 5814 5816 5818 5821 5823 5825 5827 5829 5831 5832 5834 5835 5836 5838 5839 5839 5840 5841 5841 5842 5842 5842 5842 5842 5842 5842 5841 5841 5840 5840 5839 5838 5837 5836 5834 5833 5831 5830 5828 5826
5798 5801 5804 5807 5809 5811 5814 5817 5819 5821 5823 5825 5827 5828 5829 5831 5832 5833 5834 5835 5836 5836 5837 5837 5837 5837 5837 5837 5837 5836 5836 5835 5835 5834 5833 5832 5831 5829 5828 5826 5824 5823 5821
5790 5793 5797 5799 5802 5804 5807 5810 5812 5814 5816 5818 5820 5822 5823 5825 5826 5827 5828 5829 5830 5831 5831 5832 5832 5832 5832 5832 5831 5831 5830 5830 5829 5828 5827 5826 5825 5824 5822 5821 5819 5817 5815
5781 5785 5789 5792 5794 5797 5800 5802 5805 5807 5809 5812 5814 5815 5817 5819 5820 5821 5822 5823 5824 5825 5825 5826 5826 5826 5826 5826 5826 5825 5825 5824 5823 5823 5822 5820 5819 5818 5816 5815 5813 5811 5809
5772 5776 5780 5783 5786 5789 5792 5795 5797 5800 5802 5804 5807 5809 5810 5812 5813 5815 5816 5817 5817 5818 5819 5819 5820 5820 5820 5820 5820 5819 5819 5818 5817 5816 5815 5814 5813 5811 5810 5808 5807 5805 5803
5763 5767 5771 5774 5778 5781 5784 5786 5789 5792 5794 5797 5799 5802 5803 5806 5807 5808 5809 5810 5811 5812 5812 5813 5813 5813 5813 5813 5813 5813 5812 5812 5811 5810 5809 5808 5806 5805 5803 5802 5800 5798 5796
5753 5757 5761 5765 5769 5772 5775 5778 5781 5784 5786 5789 5791 5793 5796 5798 5800 5801 5802 5803 5804 5805 5805 5806 5806 5806 5806 5806 5806 5806 5805 5805 5804 5803 5802 5801 5800 5798 5797 5795 5793 5791 5789
5743 5747 5752 5756 5759 5763 5766 5769 5772 5775 5778 5780 5783 5785 5787 5789 5791 5793 5795 5796 5797 5797 5798 5799 5799 5799 5799 5799 5799 5799 5798 5797 5796 5796 5795 5793 5792 5791 5789 5788 5786 5784 5782
5733 5738 5742 5746 5749 5753 5757 5760 5763 5766 5769 5772 5774 5777 5779 5781 5783 5785 5787 5788 5789 5790 5790 5791 5791 5792 5792 5792 5791 5791 5790 5790 5789 5788 5787 5786 5784 5783 5782 5780 5778 5776 5775
5723 5727 5732 5736 5739 5743 5747 5750 5753 5757 5760 5763 5765 5768 5770 5772 5774 5776 5778 5779 5781 5782 5783 5783 5783 5784 5784 5784 5783 5783 5782 5781 5781 5780 5779 5777 5776 5775 5773 5772 5770 5768 5766
5712 5716 5721 5725 5729 5733 5737 5740 5744 5747 5750 5753 5756 5759 5761 5763 5765 5767 5769 5771 5772 5774 5775 5775 5775 5775 5775 5775 5775 5774 5774 5773 5772 5771 5770 5769 5767 5766 5764 5763 5761 5759 5757
5700 5705 5709 5714 5718 5722 5726 5730 5733 5737 5740 5743 5746 5749 5751 5754 5756 5758 5760 5762 5764 5765 5766 5767 5767 5767 5766 5766 5766 5766 5765 5764 5764 5763 5761 5760 5758 5757 5755 5754 5752 5750 5748
5688 5693 5698 5702 5707 5711 5715 5719 5723 5726 5730 5733 5736 5739 5742 5744 5746 5748 5750 5752 5754 5755 5756 5757 5757 5757 5757 5757 5757 5756 5756 5755 5754 5753 5752 5751 5749 5747 5746 5744 5742 5740 5738
5675 5681 5686 5691 5695 5700 5704 5708 5712 5715 5719 5722 5725 5728 5731 5734 5736 5738 5740 5742 5743 5745 5746 5747 5747 5748 5748 5748 5747 5747 5746 5746 5745 5744 5743 5741 5739 5738 5736 5734 5732 5730 5728
5663 5668 5673 5678 5683 5687 5692 5696 5700 5704 5708 5712 5715 5718 5721 5723 5725 5728 5730 5732 5733 5735 5736 5737 5737 5737 5738 5737 5737 5737 5736 5736 5735 5734 5733 5731 5729 5728 5726 5724 5721 5719 5717
5650 5655 5660 5666 5670 5675 5679 5684 5688 5693 5697 5700 5704 5707 5710 5712 5715 5717 5719 5721 5723 5724 5726 5727 5727 5727 5727 5727 5727 5727 5726 5725 5724 5723 5722 5721 5719 5717 5715 5713 5710 5708 5706
5636 5642 5647 5653 5658 5662 5667 5672 5676 5681 5685 5689 5692 5695 5698 5701 5703 5706 5708 5710 5712 5713 5714 5715 5716 5716 5716 5716 5716 5716 5715 5714 5713 5712 5711 5710 5708 5706 5704 5702 5699 5697 5694
5623 5628 5634 5639 5644 5649 5654 5659 5664 5668 5672 5676 5680 5683 5686 5689 5692 5694 5696 5698 5700 5701 5702 5704 5704 5705 5705 5705 5704 5704 5703 5703 5702 5701 5700 5698 5696 5694 5692 5690 5687 5685 5682
5608 5614 5620 5626 5631 5636 5641 5646 5650 5655 5659 5663 5667 5671 5673 5676 5679 5681 5684 5686 5688 5689 5691 5692 5692 5693 5693 5693 5692 5692 5691 5691 5690 5690 5688 5687 5684 5683 5680 5678 5675 5672 5670
5594 5599 5605 5611 5617 5622 5627 5632 5637 5641 5646 5650 5654 5657 5660 5663 5666 5668 5671 5673 5675 5676 5678 5679 5680 5681 5681 5681 5680 5680 5679 5679 5678 5677 5676 5675 5672 5670 5668 5665 5662 5660 5657
5579 5585 5591 5596 5602 5608 5613 5618 5623 5627 5632 5636 5640 5644 5647 5650 5653 5655 5658 5660 5662 5664 5666 5667 5668 5668 5668 5668 5668 5668 5667 5667 5666 5665 5663 5662 5659 5657 5655 5652 5649 5647 5644
5565 5572 5577 5583 5588 5594 5599 5604 5609 5613 5618 5623 5627 5630 5634 5637 5640 5642 5645 5647 5649 5651 5651 5653 5654 5654 5654 5655 5655 5655 5654 5653 5653 5652 5650 5648 5646 5644 5641 5639 5636 5633 5630
5551 5557 5563 5569 5574 5579 5584 5589 5594 5599 5604 5609 5613 5616 5620 5623 5625 5628 5631 5633 5635 5637 5638 5639 5640 5641 5641 5641 5641 5641 5640 5639 5638 5638 5636 5634 5632 5629 5628 5626 5623 5619 5616